[[{"header":{"parameterUnit":"m.s-1","parameterCategory":1,"la1":30.2991,"la2":30.254,"lo1":-89.0895,"lo2":-89.0444,"dy":0.0017,"dx":0.0017,"nx":28,"ny":28,"refTime":"2025-09-09T03:00:00:Z","depth":0,"parameterNumber":2,"parameterNumberName":"U-component_of_WINDS"},"data":[0,0,0,0,0,0,0,0,0,0,0,0,0,0,0,0,0,0,0,0,0,0,0,0,0,0,0,0,0,0,0,0,0,0,0,0,0,0,0,0,0,0,0,0,0,0,0,0,0,0,0,0,0,0,0,0,0,0,-3.4428,-3.4427,0,-3.4341,-3.434,-3.4339,-3.4195,-3.4192,-3.419,-3.4187,-3.41,-3.41,-3.41,0,0,0,0,0,0,0,0,0,0,0,0,0,-3.4473,-3.4473,-3.4428,-3.4427,-3.4425,-3.4341,-3.4339,-3.4338,-3.4195,-3.4192,-3.4189,-3.4186,-3.41,-3.41,-3.41,0,0,0,0,0,0,0,0,0,0,0,0,0,-3.4427,-3.4473,-3.4428,-3.4344,-3.4335,-3.4341,-3.4339,-3.4338,-3.4196,-3.4192,-3.4188,-3.4184,-3.41,-3.41,-3.41,-3.4181,0,0,-3.4101,-3.4101,0,0,0,0,0,0,0,0,-3.443,-3.4425,-3.4357,-3.435,-3.434,-3.4274,-3.4323,-3.4285,-3.4197,-3.4249,-3.4187,-3.4182,-3.4161,-3.4156,-3.4149,-3.4177,-3.4173,-3.4101,-3.4101,-3.4101,-3.4101,0,0,0,0,0,0,0,-3.4433,-3.4428,-3.4393,-3.4357,-3.4346,-3.4312,-3.4301,-3.4316,-3.4229,-3.4244,-3.4234,-3.4225,-3.4156,-3.4149,-3.4146,-3.4172,-3.4101,-3.4101,-3.4101,-3.4101,-3.4265,-3.4269,0,0,0,0,0,0,-3.4448,-3.4432,-3.4396,-3.439,-3.4376,-3.4314,-3.4302,-3.43,-3.4228,-3.4213,-3.4229,-3.4219,-3.415,-3.4146,-3.4142,-3.4234,-3.4101,-3.4101,-3.4101,-3.4261,-3.4266,-3.4271,0,0,0,0,0,0,-3.445,-3.4446,-3.4399,-3.4408,-3.44,-3.4317,-3.4316,-3.43,-3.4293,-3.4216,-3.42,-3.4237,-3.4147,-3.4142,-3.4173,-3.4229,-3.4101,-3.4102,-3.4256,-3.4263,-3.4269,-3.4417,0,0,0,0,0,0,-3.4452,-3.4448,-3.4477,-3.441,-3.44,-3.4431,-3.432,-3.4301,-3.4293,-3.428,-3.422,-3.4206,-3.4144,-3.4173,-3.4173,-3.4227,-3.4102,-3.4251,-3.4259,-3.4267,-3.4407,-3.4428,-3.4446,0,0,0,0,0,-3.4454,-3.4522,-3.4479,-3.4475,-3.4434,-3.4435,-3.4429,-3.4355,-3.4298,-3.4327,-3.4279,-3.4208,-3.4223,-3.4178,-3.4176,-3.4231,-3.4247,-3.4257,-3.4266,-3.4398,-3.4424,-3.4445,0,0,0,0,0,0,-3.4597,-3.4511,-3.4463,-3.4511,-3.4482,-3.441,-3.4445,-3.4384,-3.4369,-3.4357,-3.4266,-3.4254,-3.4298,-3.4267,-3.4219,-3.4307,-3.4224,-3.4234,-3.4325,-3.4349,-3.4368,-3.4375,-3.4102,0,0,0,0,0,-3.4635,-3.4641,-3.4566,-3.4616,-3.4604,-3.4528,-3.4525,-3.4471,-3.4436,-3.4423,-3.4376,-3.4346,-3.4344,-3.4345,-3.4338,-3.4402,-3.4388,-3.4439,-3.4458,-3.4475,-3.4484,-3.4519,-3.4541,-3.4302,-3.4302,-3.4302,0,0,-3.4712,-3.4666,-3.4675,-3.4644,-3.4614,-3.4625,-3.4518,-3.4532,-3.454,-3.4425,-3.4452,-3.4418,-3.4378,-3.4427,-3.4446,-3.4403,-3.4547,-3.4487,-3.45,-3.4501,-3.4531,-3.4553,-3.4574,-3.4309,-3.4307,-3.4306,0,0,-3.4857,-3.4823,-3.4861,-3.4835,-3.4791,-3.474,-3.475,-3.4689,-3.4662,-3.4687,-3.4602,-3.461,-3.4608,-3.4584,-3.4572,-3.4712,-3.4648,-3.4713,-3.4814,-3.4849,-3.4867,-3.4884,-3.4936,-3.4955,-3.4722,-3.4723,-3.4723,0,-3.4959,-3.497,-3.4889,-3.491,-3.49,-3.4797,-3.4837,-3.4815,-3.4772,-3.4768,-3.472,-3.4717,-3.4683,-3.4726,-3.4761,-3.4753,-3.4763,-3.4719,-3.4871,-3.4887,-3.4901,-3.4949,-3.4969,-3.4731,-3.473,-3.4729,-3.4729,0,-3.5098,-3.5108,-3.5144,-3.5106,-3.51,-3.513,-3.5056,-3.5059,-3.5007,-3.4962,-3.4991,-3.4947,-3.4931,-3.4937,-3.4885,-3.4974,-3.4948,-3.4887,-3.4802,-3.4933,-3.4977,-3.4995,-3.4743,-3.474,-3.4738,-3.4736,0,0,-3.533,-3.5249,-3.5264,-3.5246,-3.5192,-3.5199,-3.5226,-3.521,-3.5216,-3.5191,-3.5213,-3.5214,-3.5158,-3.5145,-3.5089,-3.5119,-3.5236,-3.5054,-3.5052,-3.5091,-3.5334,-3.5382,-3.5404,-3.5193,-3.5196,-3.5199,-3.5338,0,-3.5466,-3.5506,-3.5436,-3.5493,-3.5503,-3.5406,-3.543,-3.5401,-3.536,-3.5363,-3.5318,-3.5322,-3.5246,-3.5237,-3.5263,-3.5217,-3.5284,-3.5206,-3.5214,-3.5216,-3.5228,-3.5427,-3.5476,-3.561,-3.5355,-3.5358,-3.536,0,-3.5629,-3.5613,-3.5672,-3.5616,-3.5618,-3.564,-3.5622,-3.5625,-3.5591,-3.5559,-3.5546,-3.5481,-3.5506,-3.5424,-3.5458,-3.5406,-3.5406,-3.5384,-3.5387,-3.5386,-3.5296,-3.5433,-3.565,-3.5671,-3.5386,-3.5384,-3.5382,0,-3.5795,-3.5788,-3.5822,-3.581,-3.5746,-3.5765,-3.5739,-3.5701,-3.5697,-3.5681,-3.5678,-3.5666,-3.566,-3.5653,-3.5587,-3.5533,-3.563,-3.5542,-3.5606,-3.5609,-3.5631,-3.5631,-3.5854,-3.563,-3.5629,-3.5629,-3.5629,0,-3.5954,-3.5995,-3.5896,-3.5918,-3.5961,-3.5881,-3.5926,-3.5891,-3.5858,-3.5872,-3.5788,-3.5804,-3.5716,-3.5723,-3.5672,-3.5709,-3.5707,-3.5683,-3.567,-3.5691,-3.5695,-3.569,-3.568,-3.5634,-3.5633,-3.5632,-3.5631,0,-3.6147,-3.6082,-3.6114,-3.6052,-3.6037,-3.6072,-3.6019,-3.6038,-3.5992,-3.6012,-3.6012,-3.5941,-3.5945,-3.5879,-3.587,-3.5836,-3.5897,-3.5866,-3.5909,-3.5899,-3.5968,-3.5963,-3.6196,-3.6224,-3.5982,-3.5984,-3.5986,0,-3.6253,-3.6282,-3.6223,-3.6227,-3.6205,-3.6212,-3.6208,-3.613,-3.613,-3.6095,-3.6118,-3.6115,-3.6109,-3.612,-3.6069,-3.6062,-3.6031,-3.6114,-3.603,-3.6052,-3.6035,-3.6034,-3.6038,-3.6132,-3.6135,-3.6137,-3.6139,0,-3.6449,-3.6417,-3.6413,-3.6401,-3.6398,-3.6384,-3.6365,-3.6373,-3.6289,-3.6293,-3.6296,-3.6291,-3.6283,-3.6282,-3.6266,-3.6241,-3.6178,-3.6166,-3.6181,-3.6204,-3.6228,-3.6218,-3.5958,-3.6161,-3.6159,-3.6157,-3.6156,-3.6155,-3.6603,-3.6625,-3.6588,-3.6588,-3.6565,-3.655,-3.6565,-3.6522,-3.6523,-3.651,-3.6464,-3.6476,-3.6444,-3.6416,-3.6397,-3.6406,-3.6366,-3.6387,-3.6392,-3.6399,-3.6413,-3.6227,-3.6403,-3.6402,-3.6402,-3.6401,-3.64,0,-3.6796,-3.6768,-3.6769,-3.6745,-3.6746,-3.6685,-3.6662,-3.6667,-3.6678,-3.6653,-3.6649,-3.6654,-3.6653,-3.6603,-3.6597,-3.6614,-3.6585,-3.6616,-3.6614,-3.661,-3.6448,-3.6437,-3.6639,-3.6639,-3.6639,-3.6639,-3.6639,-3.6639,-3.6896,-3.6931,-3.6895,-3.6919,-3.689,-3.6901,-3.6893,-3.6879,-3.6859,-3.6869,-3.6868,-3.6835,-3.68,-3.6792,-3.6789,-3.6775,-3.6777,-3.6818,-3.6794,-3.6644,-3.6621,-3.6599,-3.6588,-3.6819,-3.6819,-3.6955,-3.6956,-3.6957]},{"header":{"parameterUnit":"m.s-1","parameterCategory":1,"la1":30.2991,"la2":30.254,"lo1":-89.0895,"lo2":-89.0444,"dy":0.0017,"dx":0.0017,"nx":28,"ny":28,"refTime":"2025-09-09T03:00:00:Z","depth":0,"parameterNumber":3,"parameterNumberName":"V-component_of_WINDS"},"data":[0,0,0,0,0,0,0,0,0,0,0,0,0,0,0,0,0,0,0,0,0,0,0,0,0,0,0,0,0,0,0,0,0,0,0,0,0,0,0,0,0,0,0,0,0,0,0,0,0,0,0,0,0,0,0,0,0,0,0.6321,0.6321,0,0.6254,0.6253,0.6253,0.6246,0.6247,0.6248,0.6249,0.6177,0.6174,0.6172,0,0,0,0,0,0,0,0,0,0,0,0,0,0.6444,0.6441,0.6321,0.6321,0.632,0.6254,0.6253,0.6252,0.6246,0.6247,0.6248,0.6249,0.6177,0.6174,0.6171,0,0,0,0,0,0,0,0,0,0,0,0,0,0.6385,0.6441,0.6322,0.6309,0.6307,0.6254,0.6253,0.6252,0.6246,0.6247,0.6248,0.6249,0.6178,0.6175,0.6171,0.6125,0,0,0.6159,0.6157,0,0,0,0,0,0,0,0,0.6388,0.638,0.6312,0.631,0.6308,0.626,0.627,0.621,0.6246,0.6269,0.6249,0.625,0.6203,0.6197,0.6182,0.6122,0.6119,0.6159,0.6156,0.6155,0.6154,0,0,0,0,0,0,0,0.6392,0.6383,0.6295,0.6311,0.6308,0.6306,0.6299,0.6259,0.6231,0.6267,0.6267,0.6259,0.6202,0.6186,0.6181,0.6118,0.6159,0.6155,0.6153,0.6151,0.6019,0.6017,0,0,0,0,0,0,0.6399,0.6387,0.6297,0.6293,0.6351,0.6303,0.6295,0.6274,0.6231,0.6226,0.6258,0.6259,0.6192,0.6185,0.6178,0.6122,0.6155,0.6151,0.6149,0.602,0.6018,0.6017,0,0,0,0,0,0,0.6402,0.6391,0.63,0.634,0.6328,0.63,0.6276,0.6272,0.6256,0.6224,0.6219,0.6247,0.6193,0.6183,0.6139,0.6119,0.6149,0.6146,0.6021,0.6019,0.6018,0.601,0,0,0,0,0,0,0.6405,0.6392,0.6374,0.6339,0.6326,0.6262,0.6275,0.627,0.625,0.625,0.6212,0.6207,0.6193,0.6145,0.6135,0.6115,0.6143,0.6023,0.602,0.6018,0.6012,0.6008,0.6005,0,0,0,0,0,0.641,0.6374,0.6373,0.6363,0.6303,0.6261,0.6253,0.6238,0.6248,0.623,0.621,0.6208,0.6124,0.614,0.6129,0.6107,0.6024,0.6021,0.6018,0.6013,0.6009,0.6005,0,0,0,0,0,0,0.6405,0.6369,0.6368,0.632,0.6294,0.626,0.6236,0.6234,0.6203,0.6204,0.6187,0.6179,0.6135,0.6117,0.6136,0.6062,0.6075,0.607,0.6075,0.607,0.6067,0.6071,0.614,0,0,0,0,0,0.6399,0.6369,0.6338,0.6299,0.6286,0.6264,0.6244,0.6236,0.6207,0.6196,0.6173,0.6145,0.6112,0.609,0.6059,0.601,0.6002,0.599,0.5987,0.5984,0.5979,0.5953,0.5947,0.6008,0.6008,0.6008,0,0,0.6385,0.6362,0.6343,0.6297,0.6276,0.6244,0.6254,0.6219,0.6195,0.619,0.6147,0.613,0.6097,0.6051,0.6029,0.6035,0.5961,0.5981,0.5979,0.5975,0.5949,0.5943,0.5938,0.6006,0.6006,0.6007,0,0,0.6343,0.6323,0.6288,0.6267,0.6236,0.6222,0.6214,0.6181,0.6169,0.6126,0.6122,0.6094,0.6038,0.6015,0.5996,0.595,0.5947,0.594,0.5921,0.5896,0.5891,0.5886,0.5869,0.5863,0.5936,0.5936,0.5936,0,0.6329,0.6282,0.627,0.6236,0.6216,0.6213,0.6177,0.6158,0.6117,0.6103,0.6111,0.6042,0.602,0.5968,0.5957,0.5942,0.5932,0.5943,0.5893,0.5888,0.5884,0.5867,0.5861,0.5935,0.5935,0.5935,0.5935,0,0.6266,0.6233,0.6209,0.6172,0.6149,0.6115,0.6098,0.6077,0.6072,0.6057,0.6014,0.5988,0.5952,0.594,0.5933,0.5888,0.5892,0.5897,0.5908,0.5878,0.5861,0.5855,0.5934,0.5934,0.5935,0.5935,0,0,0.6215,0.6175,0.6166,0.6149,0.6116,0.609,0.6057,0.6022,0.6004,0.5978,0.5948,0.5903,0.5908,0.5887,0.5878,0.5856,0.5821,0.5863,0.5862,0.5855,0.5769,0.5764,0.5757,0.582,0.5819,0.5818,0.5771,0,0.6168,0.6108,0.6099,0.6046,0.6015,0.6014,0.5985,0.5961,0.5948,0.592,0.5905,0.5873,0.5882,0.5869,0.5848,0.583,0.5803,0.5833,0.5792,0.579,0.5797,0.5749,0.5743,0.57,0.5765,0.5764,0.5763,0,0.6104,0.6078,0.6022,0.5995,0.5982,0.5956,0.5924,0.5899,0.5872,0.5864,0.5843,0.5838,0.5803,0.5819,0.5771,0.5792,0.5775,0.5764,0.5762,0.5755,0.5773,0.5739,0.5686,0.5679,0.5753,0.5754,0.5755,0,0.6071,0.6022,0.5983,0.5969,0.5936,0.5918,0.5903,0.5879,0.5859,0.5833,0.582,0.5789,0.5771,0.5748,0.5735,0.5748,0.5687,0.5702,0.5678,0.5679,0.5663,0.5663,0.5604,0.5656,0.5656,0.5656,0.5656,0,0.6018,0.5984,0.5968,0.5943,0.5905,0.5895,0.5858,0.5844,0.5823,0.5795,0.5793,0.5767,0.5753,0.5725,0.5715,0.5676,0.5669,0.5661,0.5658,0.566,0.566,0.5646,0.5648,0.5655,0.5655,0.5655,0.5656,0,0.5973,0.5961,0.5918,0.5892,0.5885,0.5858,0.5836,0.5812,0.5801,0.5766,0.5758,0.5739,0.5707,0.5693,0.5652,0.5646,0.5601,0.5602,0.561,0.5608,0.5585,0.5586,0.5512,0.5501,0.5562,0.5562,0.5561,0,0.5939,0.5913,0.5885,0.5867,0.5853,0.5824,0.5805,0.5796,0.5776,0.5747,0.5726,0.5695,0.5668,0.5617,0.5599,0.5569,0.5568,0.5544,0.5563,0.5566,0.5565,0.5566,0.5563,0.5539,0.5539,0.5538,0.5538,0,0.5879,0.5875,0.5848,0.582,0.5798,0.5775,0.5753,0.5738,0.5725,0.5704,0.5672,0.5651,0.5612,0.558,0.555,0.5534,0.5533,0.5533,0.5525,0.5525,0.553,0.5526,0.5598,0.5533,0.5534,0.5534,0.5534,0.5535,0.5836,0.5814,0.5791,0.5762,0.5745,0.5725,0.5702,0.5689,0.5662,0.563,0.5627,0.5592,0.5569,0.5528,0.5512,0.5485,0.5491,0.548,0.5477,0.5474,0.5472,0.5538,0.548,0.548,0.548,0.548,0.548,0,0.5775,0.5761,0.5735,0.5705,0.5682,0.5687,0.5663,0.5643,0.5614,0.5593,0.5568,0.5532,0.5502,0.5484,0.5454,0.5436,0.5435,0.5428,0.5428,0.5424,0.5469,0.5478,0.5429,0.5429,0.5429,0.5429,0.5429,0.5429,0.574,0.5702,0.5696,0.565,0.5636,0.5604,0.559,0.5571,0.5555,0.5515,0.5491,0.548,0.546,0.543,0.5403,0.5398,0.5386,0.5379,0.5374,0.5416,0.5421,0.5426,0.5434,0.5377,0.5377,0.5332,0.5331,0.5331]}]]